TimeMST,TemperatureF,Dew PointF,Humidity,Sea Level PressureIn,VisibilityMPH,Wind Direction,Wind SpeedMPH,Gust SpeedMPH,PrecipitationIn,Events,Conditions,WindDirDegrees,DateUTC
12:58 AM,76.5,25.3,15,29.69,10.0,SSE,8.1,-,N/A,,Clear,150,2013-06-20 07:58:00
1:58 AM,74.3,30.0,20,29.69,10.0,SSE,8.1,-,N/A,,Clear,150,2013-06-20 08:58:00
2:58 AM,73.2,33.8,24,29.70,10.0,SSE,8.1,-,N/A,,Clear,150,2013-06-20 09:58:00
3:58 AM,72.0,29.1,20,29.70,10.0,East,5.8,-,N/A,,Clear,80,2013-06-20 10:58:00
4:58 AM,71.4,28.8,21,29.73,10.0,ESE,4.6,-,N/A,,Clear,110,2013-06-20 11:58:00
5:58 AM,70.3,28.9,21,29.74,10.0,ESE,8.1,-,N/A,,Clear,120,2013-06-20 12:58:00
6:58 AM,78.1,27.7,16,29.75,10.0,SE,8.1,-,N/A,,Clear,130,2013-06-20 13:58:00
7:58 AM,82.6,27.5,13,29.76,10.0,SE,5.8,-,N/A,,Clear,130,2013-06-20 14:58:00
8:58 AM,86.2,21.6,9,29.77,10.0,Calm,Calm,-,N/A,,Clear,0,2013-06-20 15:58:00
9:58 AM,89.6,15.8,7,29.77,10.0,Variable,6.9,-,N/A,,Clear,0,2013-06-20 16:58:00
10:58 AM,95.0,19.4,6,29.74,10.0,Variable,3.5,-,N/A,,Clear,0,2013-06-20 17:58:00
11:58 AM,96.8,12.2,4,29.73,10.0,Variable,6.9,-,N/A,,Clear,0,2013-06-20 18:58:00
12:58 PM,98.6,8.6,4,29.69,10.0,West,10.4,-,N/A,,Clear,270,2013-06-20 19:58:00
1:58 PM,100.6,6.8,4,29.70,10.0,WSW,9.2,19.6,N/A,,Clear,250,2013-06-20 20:58:00
2:58 PM,101.1,13.8,4,29.68,10.0,SSW,13.8,21.9,N/A,,Clear,210,2013-06-20 21:58:00
3:54 PM,102.2,8.6,4,29.82,10.0,West,12.7,19.6,N/A,,Clear,270,2013-06-20 22:54:00
3:59 PM,102.4,8.2,4,29.68,10.0,West,10.4,19.6,N/A,,Clear,270,2013-06-20 22:59:00
4:14 PM,102.2,8.6,4,29.81,10.0,NW,13.8,-,N/A,,Clear,310,2013-06-20 23:14:00
4:58 PM,101.7,14.2,4,29.65,10.0,West,17.3,23.0,N/A,,Clear,260,2013-06-20 23:58:00
5:02 PM,102.2,14.0,4,29.80,10.0,WSW,16.1,-,N/A,,Clear,250,2013-06-21 00:02:00
5:58 PM,100.6,13.5,4,29.66,10.0,West,13.8,20.7,N/A,,Clear,270,2013-06-21 00:58:00
6:58 PM,98.2,16.9,5,29.66,10.0,West,11.5,-,N/A,,Clear,270,2013-06-21 01:58:00
7:58 PM,94.3,14.0,5,29.68,10.0,West,6.9,-,N/A,,Clear,260,2013-06-21 02:58:00
8:58 PM,89.1,17.8,7,29.70,10.0,West,6.9,-,N/A,,Clear,270,2013-06-21 03:58:00
9:58 PM,87.6,27.5,11,29.87,10.0,West,5.8,-,N/A,,Clear,270,2013-06-21 04:58:00
10:58 PM,82.6,27.5,13,29.89,10.0,SW,3.5,-,N/A,,Clear,230,2013-06-21 05:58:00
11:58 PM,81.0,30.2,16,29.89,10.0,SSW,4.6,-,N/A,,Clear,210,2013-06-21 06:58:00